Preview of NWS' New Version of Forecast
This preview is not operational and should not be used for support decisions.

Regional Weather Roundup (RWR)

Issued by National Weather Service (NWS)

                            
000
ASUS45 KCYS 240810
RWRWY 

WYOMING REGIONAL WEATHER ROUNDUP
NATIONAL WEATHER SERVICE CHEYENNE WY
200 AM MDT SAT AUG 24 2019

NOTE:  "FAIR" INDICATES FEW OR NO CLOUDS BELOW 12,000 FEET
WITH NO SIGNIFICANT WEATHER AND/OR OBSTRUCTIONS TO VISIBILITY.

WYZ001-240900-
YELLOWSTONE NATIONAL PARK
  
CITY           SKY/WX    TMP DP  RH WIND       PRES   REMARKS
LK YELLOWSTONE   N/A     41  37  86 CALM      30.22S                  
W YELLOWSTONE  NOT AVBL                                               

$$
WYZ002>013-054>058-071-098>099-240900-
NORTHERN WYOMING
  
CITY           SKY/WX    TMP DP  RH WIND       PRES   REMARKS
JACKSON        FAIR      44  35  70 E6        30.14F                  
CODY           FAIR      53  46  77 CALM      30.03S                  
GREYBULL       FAIR      59  51  75 SE5       29.96S                  
WORLAND        FAIR      54  52  93 CALM      29.98R                  
SHERIDAN       FAIR      55  52  89 SW3       29.95S                  
BUFFALO        FAIR      56  51  84 S7          N/A                   
GILLETTE       FAIR      57  53  86 CALM      29.95F                  
HULETT         FAIR      55  52  88 SE5       29.98                   
NEWCASTLE      FAIR      55  54  94 CALM      30.02                   

$$
WYZ014>020-022>026-101>103-240900-
CENTRAL WYOMING
  
CITY           SKY/WX    TMP DP  RH WIND       PRES   REMARKS
BIG PINEY      FAIR      40  34  79 NW7       30.18S                  
PINEDALE       FAIR      41  34  75 W7        30.19                   
DUBOIS         FAIR      43  36  75 W12       30.16                   
LANDER         FAIR      56  46  69 NW6       30.08S                  
RIVERTON       FAIR      56  49  77 W7        30.06S                  
CASPER         FAIR      50  47  89 S5        30.03F                  
DOUGLAS        FAIR      59  48  67 SE9       30.01F                  

$$
WYZ021-027>030-104>119-240900-
SOUTHERN WYOMING
  
CITY           SKY/WX    TMP DP  RH WIND       PRES   REMARKS
EVANSTON       FAIR      54  34  46 S8        30.19S                  
KEMMERER       FAIR      50  32  50 N3        30.20                   
ROCK SPRINGS   FAIR      54  38  54 SE6       30.16S                  
DIXON          FAIR      43  23  45 CALM      30.16F                  
RAWLINS        FAIR      50  40  68 NW5       30.13R                  
SARATOGA       PTSUNNY   54  30  40 SE3       30.13F                  
LARAMIE        FAIR      54  48  80 S12       30.14F                  
CHEYENNE       FAIR      57  53  86 SE16G25   30.11F                  
TORRINGTON     FAIR      58  56  93 NE7       30.00F                  
PINE BLUFFS    FAIR      54  54 100 SW7       30.12R                  

$$
  

000
ASUS45 KCYS 240810
RWRWY 

WYOMING REGIONAL WEATHER ROUNDUP
NATIONAL WEATHER SERVICE CHEYENNE WY
200 AM MDT SAT AUG 24 2019

NOTE:  "FAIR" INDICATES FEW OR NO CLOUDS BELOW 12,000 FEET
WITH NO SIGNIFICANT WEATHER AND/OR OBSTRUCTIONS TO VISIBILITY.

WYZ001-240900-
...YELLOWSTONE NATIONAL PARK...
  
CITY           SKY/WX    TMP DP  RH WIND       PRES   REMARKS
LK YELLOWSTONE   N/A     41  37  86 CALM      30.22S                  
W YELLOWSTONE  NOT AVBL                                               

$$
WYZ002>013-054>058-071-098>099-240900-
...NORTHERN WYOMING...
  
CITY           SKY/WX    TMP DP  RH WIND       PRES   REMARKS
JACKSON        CLEAR     44  35  70 E6        30.14F                  
CODY           CLEAR     53  46  77 CALM      30.03S                  
GREYBULL       CLEAR     59  51  75 SE5       29.96S                  
WORLAND        CLEAR     54  52  93 CALM      29.98R                  
SHERIDAN       PTCLDY    55  52  89 SW3       29.95S                  
BUFFALO        PTCLDY    56  51  84 S7          N/A                   
GILLETTE       PTCLDY    57  53  86 CALM      29.95F                  
HULETT         FAIR      55  52  88 SE5       29.98F                  
NEWCASTLE      FAIR      55  54  94 CALM      30.02R                  

$$
WYZ014>020-022>026-101>103-240900-
...CENTRAL WYOMING...
  
CITY           SKY/WX    TMP DP  RH WIND       PRES   REMARKS
BIG PINEY      CLEAR     40  34  79 NW7       30.18S                  
PINEDALE       CLEAR     41  34  75 W7        30.19S                  
DUBOIS         FAIR      43  36  75 W12       30.16F                  
LANDER         CLEAR     56  46  69 NW6       30.08S                  
RIVERTON       CLEAR     56  49  77 W7        30.06S                  
CASPER         CLEAR     50  47  89 S5        30.03F                  
DOUGLAS        PTCLDY    59  48  67 SE9       30.01F                  

$$
WYZ021-027>030-104>119-240900-
...SOUTHERN WYOMING...
  
CITY           SKY/WX    TMP DP  RH WIND       PRES   REMARKS
EVANSTON       CLEAR     54  34  46 S8        30.19S                  
KEMMERER       CLEAR     50  32  50 N3        30.20S                  
FORT BRIDGER   NOT AVBL                                               
ROCK SPRINGS   CLEAR     54  38  54 SE6       30.16S                  
DIXON          FAIR      43  23  45 CALM      30.16F                  
RAWLINS        CLEAR     50  40  68 NW5       30.13R                  
SARATOGA       MOCLDY    54  30  40 SE3       30.13F                  
LARAMIE        PTCLDY    54  48  80 S12       30.14F                  
CHEYENNE       MOCLDY    57  53  86 SE16G25   30.11F                  
TORRINGTON     CLOUDY    58  56  93 NE7       30.00F                  
PINE BLUFFS    FAIR      54  54 100 SW7       30.12R                  

$$